Overview Statistics Trail Chart Weather Telemetry Raw packets
 

This is the latest recevied weather packets stored in our database for station/object VE3DVC. If no packets are shown the sender has not sent any weather packets the latest 10 day(s).

<< 1 2 3 4 >>
Time Temp. Humidity Pressure Rain* Wind** Luminosity Snow
1788717961 23.33° C 72% 1019.1 hPa 0 mm - - -
1788717241 23.89° C 70% 1019.2 hPa 0 mm - - -
1788716521 23.33° C 70% 1019.2 hPa 0 mm - - -
1788715801 23.33° C 72% 1019.3 hPa 0 mm - - -
1788715081 23.33° C 74% 1019.2 hPa 0 mm - - -
1788714361 22.78° C 74% 1019.2 hPa 0 mm - - -
1788713641 22.78° C 74% 1019.2 hPa 0 mm - - -
1788712921 22.78° C 80% 1019.2 hPa 0 mm - - -
1788712202 22.22° C 80% 1019.2 hPa 0 mm - - -
1788711481 22.22° C 79% 1019.3 hPa 0 mm - - -
1788710370 22.22° C 79% 1019.3 hPa 0 mm - - -
1788709650 21.67° C 80% 1019.3 hPa 0 mm - - -
1788708931 21.67° C 84% 1019.3 hPa 0 mm - - -
1788708210 21.11° C 85% 1019 hPa 0 mm - - -
1788707491 20.56° C 87% 1019 hPa 0 mm - - -
1788706770 20.56° C 89% 1019 hPa 0 mm - - -
1788706050 20° C 90% 1018.8 hPa 0 mm - - -
1788705330 20° C 92% 1018.9 hPa 0 mm - - -
1788704611 19.44° C 93% 1018.9 hPa 0 mm - - -
1788703890 18.89° C 92% 1019 hPa 0 mm - - -
1788702929 18.33° C 92% 1018.7 hPa 0 mm - - -
1788702191 17.78° C 92% 1018.7 hPa 0 mm - - -
1788701472 17.78° C 92% 1018.5 hPa 0 mm - - -
1788700751 17.22° C 92% 1018.5 hPa 0 mm - - -
1788700032 16.67° C 92% 1018.6 hPa 0 mm - - -

* Rain latest hour (hover to see other rain measurements)
** Current wind speed in m/s (hover to see current wind gust speed)